{"data":{"norad_id":64934,"epoch":"2026-09-20T13:01:02.667936Z","epoch_age_seconds":120531,"freshness":"FRESH","line1":"1 64934U 25158C   26263.54239199  .00010309  00000+0  32093-3 0  9990","line2":"2 64934  97.2855 121.8627 0001970  88.3641 271.7827 15.33471785 64714","mean_motion":15.33471785,"eccentricity":0.000197,"inclination_deg":97.2855,"raan_deg":121.8627,"arg_perigee_deg":88.3641,"mean_anomaly_deg":271.7827,"bstar":0.00032093,"rev_number":6471,"period_min":93.904564406446,"perigee_km":464.11529302796,"apogee_km":466.811671618,"semimajor_km":6843.600482323,"source":"CELESTRAK","updated_at":"2026-09-21T09:00:35.486300Z"}}